Showing default

OSCAR 23 (KITSAT 1), 22077

Orbit data source: Space-Track

OSCAR 23 (KITSAT 1), 22077 is a payload satellite owned by KAIST (KR) in LEO that was launched on Mon, 10 Aug 1992 UTC via an ARIANE 42P launch vehicle from the French Guiana (FRGUI). Payload-class satellites include a variety of spacecraft equipped with specific instruments for various scientific and technological missions. These include communications satellites like Starlink; space stations such as the ISS; scientific satellites like the Hubble; Earth observation satellites from companies like Planet Labs, Umbra, and HawkEye 360; GPS; miniature CubeSats for education and research; and military/defense satellites.

Loading next visibility...
Identifier
22077, 1992-052B
Orbit
LEO
Last TLE update
14 hours ago
Origin
Manufacturer
SSTL
Mission
Non-operational Civil Communications
Bus & Motor
UOSAT, Unknown motor
Mass
48 kg wet, 48 kg dry
Launch date (UTC)
1992-08-10 (33 years ago)
Launch vehicle
ARIANE 42P
Launch site
French Guiana (FRGUI)
Object type
Payload
Rocket body
Debris
Shape & HBR
Hex Poly, 0.67 m
Radar Cross Section
0.353 m², Medium (>0.1 m² and < 1m²)

Expand to show TLE details & history

TLE from 14 hours ago
0 OSCAR 23 (KITSAT 1)
1 22077U 92052B   25183.58623597 -.00000048  00000-0  56594-4 0  9996
2 22077  66.0861 293.5091 0001132 178.8812 192.7951 12.86598887544715
Epoch: 2025-07-02T14:04Z
TLE epoch observation values (Epoch: 2025-07-02T14:04:10.787Z)
Latitude
10.62635°
Longitude
166.34739°
Altitude
1,317.074 km
Speed
7.199 km/s
True Right ascension
19h 53m 01s
True Declination
10° 34' 07"
Sunlit
Object was in full shadow at epoch
Visualization orbit readout
Latitude
-66.15051°
Longitude
73.9242°
Altitude
1,339.333 km
Speed
7.188 km/s
Apparent Right ascension
06h 46m 52s
Apparent Declination
-74° 28' 56"
Sunlit
Object is in daylight
Visualization observer readout
Local Sidereal Time
16:13:50
Azimuth
195.332° SSW
Elevation
-51.206°
Doppler factor
1
Orbital elements
Apogee altitude
1,314.476 km
Perigee altitude
1,312.735 km
Semi-major axis
7,691.742 km
Eccentricity
0.00011
Inclination
66.0861°
RAAN
293.5091°
Arg. of periapsis
178.8812°
True anomaly
Unknown
Mean anomaly
192.7951°
Eccentric anomaly
Unknown
Mean motion
3.21741 °/min
Orbital period
111.89 mins
BSTAR
0.000056594
Loading maneuver chart data...
Loading SW <> Apogee altitude chart data...
Loading historical data...
Loading historical data...
Loading historical data...
Loading historical data...
Loading historical data...
Loading historical data...
Loading historical data...

OSCAR 23 (KITSAT 1) Visibility forecast

Observer location: undefined°, undefined°

Span
Click to sort rows by Start time (UTC) header in descending order
Start Az.
Max El. time (UTC)
Max El. Az.
Max El.
End time (UTC)
End Az.
6 mins2025-07-03 06:56:29.314Z120.471° SE2025-07-03 06:59:29.314Z97.492° ESE12.786°2025-07-03 07:02:29.314Z74.922° E
14 mins2025-07-03 08:46:29.314Z199.216° SSW2025-07-03 08:53:29.314Z105.536° ESE44.077°2025-07-03 09:00:29.314Z33.708° NE
11 mins2025-07-03 10:44:29.314Z269.674° W2025-07-03 10:49:29.314Z317.578° NNW25.367°2025-07-03 10:55:29.314Z11.342° NNE
4 mins2025-07-03 14:46:29.314Z4.504° NNE2025-07-03 14:48:29.314Z19.506° NNE11.292°2025-07-03 14:50:29.314Z34.435° NE
12 mins2025-07-03 16:41:29.314Z351.569° N2025-07-03 16:46:29.314Z42.181° NE29.382°2025-07-03 16:53:29.314Z107.576° ESE
13 mins2025-07-03 18:36:29.314Z319.722° NNW2025-07-03 18:42:29.314Z248.357° W40.839°2025-07-03 18:49:29.314Z170.979° S
|